Time,TemperatureF,DewpointF,PressureIn,WindDirection,WindDirectionDegrees,WindSpeedMPH,WindSpeedGustMPH,Humidity,HourlyPrecipIn,Conditions,Clouds,dailyrainin,SolarRadiationWatts/m^2,SoftwareType,DateUTC
2015-05-03 00:05:00,57.9,40.4,29.17,WSW,256,0.0,-999.0,52,0.00,,,0.00,0,Wunderground v.1.15,2015-05-03 04:05:00,
2015-05-03 00:10:00,57.7,40.7,29.17,WSW,256,0.0,-999.0,53,0.00,,,0.00,0,Wunderground v.1.15,2015-05-03 04:10:00,
2015-05-03 00:16:00,57.4,40.4,29.17,WSW,256,0.0,-999.0,53,0.00,,,0.00,0,Wunderground v.1.15,2015-05-03 04:16:00,
2015-05-03 00:21:00,57.1,40.6,29.17,WSW,256,0.0,-999.0,54,0.00,,,0.00,0,Wunderground v.1.15,2015-05-03 04:21:00,
2015-05-03 00:27:00,56.7,40.7,29.17,WSW,256,0.0,-999.0,55,0.00,,,0.00,0,Wunderground v.1.15,2015-05-03 04:27:00,
2015-05-03 00:33:00,56.4,40.9,29.17,WSW,256,0.0,-999.0,56,0.00,,,0.00,0,Wunderground v.1.15,2015-05-03 04:33:00,
2015-05-03 00:39:00,55.9,40.9,29.17,WSW,256,0.0,-999.0,57,0.00,,,0.00,0,Wunderground v.1.15,2015-05-03 04:39:00,
2015-05-03 00:45:00,55.6,40.6,29.17,WSW,256,0.0,-999.0,57,0.00,,,0.00,0,Wunderground v.1.15,2015-05-03 04:45:00,
2015-05-03 00:51:00,55.5,41.0,29.17,WSW,256,0.0,-999.0,58,0.00,,,0.00,0,Wunderground v.1.15,2015-05-03 04:51:00,
2015-05-03 00:56:00,55.3,40.8,29.17,WSW,254,2.0,-999.0,58,0.00,,,0.00,0,Wunderground v.1.15,2015-05-03 04:56:00,
2015-05-03 01:01:00,55.0,40.5,29.17,WSW,254,2.0,-999.0,58,0.00,,,0.00,0,Wunderground v.1.15,2015-05-03 05:01:00,
2015-05-03 01:07:00,54.9,41.3,29.17,SSW,199,5.0,-999.0,60,0.00,,,0.00,0,Wunderground v.1.15,2015-05-03 05:07:00,
2015-05-03 01:13:00,54.6,41.4,29.17,SSW,212,2.0,-999.0,61,0.00,,,0.00,0,Wunderground v.1.15,2015-05-03 05:13:00,
2015-05-03 01:18:00,54.3,41.1,29.17,SSW,212,0.0,-999.0,61,0.00,,,0.00,0,Wunderground v.1.15,2015-05-03 05:18:00,
2015-05-03 01:24:00,54.2,41.0,29.17,SSW,212,0.0,-999.0,61,0.00,,,0.00,0,Wunderground v.1.15,2015-05-03 05:24:00,
2015-05-03 01:30:00,53.9,40.8,29.17,SSW,212,0.0,-999.0,61,0.00,,,0.00,0,Wunderground v.1.15,2015-05-03 05:30:00,
2015-05-03 01:36:00,53.7,41.0,29.17,SSW,212,0.0,-999.0,62,0.00,,,0.00,0,Wunderground v.1.15,2015-05-03 05:36:00,
2015-05-03 01:41:00,53.6,40.9,29.17,SSW,212,0.0,-999.0,62,0.00,,,0.00,0,Wunderground v.1.15,2015-05-03 05:41:00,
2015-05-03 01:47:00,53.4,41.1,29.17,SSW,213,0.0,-999.0,63,0.00,,,0.00,0,Wunderground v.1.15,2015-05-03 05:47:00,
2015-05-03 01:53:00,53.1,40.8,29.17,SSW,213,0.0,-999.0,63,0.00,,,0.00,0,Wunderground v.1.15,2015-05-03 05:53:00,
2015-05-03 01:58:00,53.1,41.6,29.17,SSW,213,0.0,-999.0,65,0.00,,,0.00,0,Wunderground v.1.15,2015-05-03 05:58:00,
2015-05-03 02:03:00,53.0,41.5,29.17,SSW,213,0.0,-999.0,65,0.00,,,0.00,0,Wunderground v.1.15,2015-05-03 06:03:00,
2015-05-03 02:09:00,52.8,41.4,29.17,SSW,212,0.0,-999.0,65,0.00,,,0.00,0,Wunderground v.1.15,2015-05-03 06:09:00,
2015-05-03 02:14:00,52.7,41.3,29.17,SSW,213,0.0,-999.0,65,0.00,,,0.00,0,Wunderground v.1.15,2015-05-03 06:14:00,
2015-05-03 02:19:00,52.6,41.2,29.17,SSW,213,0.0,-999.0,65,0.00,,,0.00,0,Wunderground v.1.15,2015-05-03 06:19:00,
2015-05-03 02:24:00,52.4,41.4,29.17,SSW,213,0.0,-999.0,66,0.00,,,0.00,0,Wunderground v.1.15,2015-05-03 06:24:00,
2015-05-03 02:29:00,52.3,41.3,29.17,SSW,213,0.0,-999.0,66,0.00,,,0.00,0,Wunderground v.1.15,2015-05-03 06:29:00,
2015-05-03 02:34:00,52.1,41.1,29.17,SSW,212,0.0,-999.0,66,0.00,,,0.00,0,Wunderground v.1.15,2015-05-03 06:34:00,
2015-05-03 02:40:00,52.0,41.0,29.17,SSW,212,0.0,-999.0,66,0.00,,,0.00,0,Wunderground v.1.15,2015-05-03 06:40:00,
2015-05-03 02:45:00,52.0,41.4,29.17,SSW,213,0.0,-999.0,67,0.00,,,0.00,0,Wunderground v.1.15,2015-05-03 06:45:00,
2015-05-03 02:50:00,51.8,41.2,29.17,SSW,213,0.0,-999.0,67,0.00,,,0.00,0,Wunderground v.1.15,2015-05-03 06:50:00,
2015-05-03 02:55:00,51.7,41.5,29.17,SSW,213,2.0,-999.0,68,0.00,,,0.00,0,Wunderground v.1.15,2015-05-03 06:55:00,
2015-05-03 03:00:00,51.5,41.3,29.17,South,190,0.0,-999.0,68,0.00,,,0.00,0,Wunderground v.1.15,2015-05-03 07:00:00,
2015-05-03 03:05:00,51.4,41.6,29.17,SSW,201,2.0,-999.0,69,0.00,,,0.00,0,Wunderground v.1.15,2015-05-03 07:05:00,
2015-05-03 03:10:00,51.2,41.4,29.17,SSW,202,3.0,-999.0,69,0.00,,,0.00,0,Wunderground v.1.15,2015-05-03 07:10:00,
2015-05-03 03:15:00,51.1,41.3,29.17,South,191,3.0,-999.0,69,0.00,,,0.00,0,Wunderground v.1.15,2015-05-03 07:15:00,
2015-05-03 03:20:00,50.9,41.5,29.17,SSW,196,2.0,-999.0,70,0.00,,,0.00,0,Wunderground v.1.15,2015-05-03 07:20:00,
2015-05-03 03:25:00,50.8,41.4,29.17,South,188,2.0,-999.0,70,0.00,,,0.00,0,Wunderground v.1.15,2015-05-03 07:25:00,
2015-05-03 03:30:00,50.8,41.4,29.17,South,181,1.0,-999.0,70,0.00,,,0.00,0,Wunderground v.1.15,2015-05-03 07:30:00,
2015-05-03 03:35:00,50.8,42.1,29.17,South,186,2.0,-999.0,72,0.00,,,0.00,0,Wunderground v.1.15,2015-05-03 07:35:00,
2015-05-03 03:40:00,50.8,42.1,29.17,South,180,3.0,-999.0,72,0.00,,,0.00,0,Wunderground v.1.15,2015-05-03 07:40:00,
2015-05-03 03:45:00,50.9,42.2,29.17,South,182,4.0,-999.0,72,0.00,,,0.00,0,Wunderground v.1.15,2015-05-03 07:45:00,
2015-05-03 03:50:00,51.1,42.0,29.17,South,190,3.0,-999.0,71,0.00,,,0.00,0,Wunderground v.1.15,2015-05-03 07:50:00,
2015-05-03 03:55:00,51.2,42.1,29.17,South,191,3.0,-999.0,71,0.00,,,0.00,0,Wunderground v.1.15,2015-05-03 07:55:00,
2015-05-03 04:00:00,51.5,42.0,29.17,SSW,207,2.0,-999.0,70,0.00,,,0.00,0,Wunderground v.1.15,2015-05-03 08:00:00,
2015-05-03 04:05:00,51.8,42.3,29.17,SW,214,2.0,-999.0,70,0.00,,,0.00,0,Wunderground v.1.15,2015-05-03 08:05:00,
2015-05-03 04:11:00,52.0,42.5,29.17,WSW,242,0.0,-999.0,70,0.00,,,0.00,0,Wunderground v.1.15,2015-05-03 08:11:00,
2015-05-03 04:16:00,52.2,42.3,29.17,SSW,205,4.0,-999.0,69,0.00,,,0.00,0,Wunderground v.1.15,2015-05-03 08:16:00,
2015-05-03 04:21:00,52.4,42.1,29.17,South,180,3.0,-999.0,68,0.00,,,0.00,0,Wunderground v.1.15,2015-05-03 08:21:00,
2015-05-03 04:26:00,52.5,42.2,29.17,South,191,2.0,-999.0,68,0.00,,,0.00,0,Wunderground v.1.15,2015-05-03 08:26:00,
2015-05-03 04:31:00,52.7,42.0,29.17,South,178,3.0,-999.0,67,0.00,,,0.00,0,Wunderground v.1.15,2015-05-03 08:31:00,
2015-05-03 04:36:00,52.8,41.7,29.17,SSW,212,2.0,-999.0,66,0.00,,,0.00,0,Wunderground v.1.15,2015-05-03 08:36:00,
2015-05-03 04:41:00,53.0,42.3,29.17,SSW,208,4.0,-999.0,67,0.00,,,0.00,0,Wunderground v.1.15,2015-05-03 08:41:00,
2015-05-03 04:46:00,53.1,42.4,29.17,SSW,201,3.0,-999.0,67,0.00,,,0.00,0,Wunderground v.1.15,2015-05-03 08:46:00,
2015-05-03 04:51:00,53.3,42.2,29.18,SSW,213,3.0,-999.0,66,0.00,,,0.00,0,Wunderground v.1.15,2015-05-03 08:51:00,
2015-05-03 04:56:00,53.4,41.9,29.17,SW,217,3.0,-999.0,65,0.00,,,0.00,0,Wunderground v.1.15,2015-05-03 08:56:00,
2015-05-03 05:02:00,53.6,42.1,29.18,SW,228,2.0,-999.0,65,0.00,,,0.00,0,Wunderground v.1.15,2015-05-03 09:02:00,
2015-05-03 05:07:00,53.9,42.0,29.18,SSW,205,6.0,-999.0,64,0.00,,,0.00,0,Wunderground v.1.15,2015-05-03 09:07:00,
2015-05-03 05:12:00,54.3,42.0,29.17,SW,221,6.0,-999.0,63,0.00,,,0.00,0,Wunderground v.1.15,2015-05-03 09:12:00,
2015-05-03 05:17:00,54.9,42.1,29.17,SW,223,2.0,-999.0,62,0.00,,,0.00,0,Wunderground v.1.15,2015-05-03 09:17:00,
2015-05-03 05:23:00,55.2,41.5,29.18,SSW,198,4.0,-999.0,60,0.00,,,0.00,0,Wunderground v.1.15,2015-05-03 09:23:00,
2015-05-03 05:28:00,55.6,41.9,29.17,South,182,4.0,-999.0,60,0.00,,,0.00,0,Wunderground v.1.15,2015-05-03 09:28:00,
2015-05-03 05:33:00,56.1,41.5,29.18,SW,225,4.0,-999.0,58,0.00,,,0.00,0,Wunderground v.1.15,2015-05-03 09:33:00,
2015-05-03 05:38:00,56.4,41.8,29.18,SSW,194,2.0,-999.0,58,0.00,,,0.00,0,Wunderground v.1.15,2015-05-03 09:38:00,
2015-05-03 05:42:00,56.7,41.6,29.18,SSW,207,4.0,-999.0,57,0.00,,,0.00,0,Wunderground v.1.15,2015-05-03 09:42:00,
2015-05-03 05:48:00,57.0,41.9,29.18,South,186,6.0,-999.0,57,0.00,,,0.00,0,Wunderground v.1.15,2015-05-03 09:48:00,
2015-05-03 05:53:00,57.1,41.5,29.18,WSW,247,4.0,-999.0,56,0.00,,,0.00,0,Wunderground v.1.15,2015-05-03 09:53:00,
2015-05-03 05:58:00,57.1,41.1,29.18,WSW,258,2.0,-999.0,55,0.00,,,0.00,0,Wunderground v.1.15,2015-05-03 09:58:00,
2015-05-03 06:03:00,57.3,41.3,29.18,West,266,2.0,-999.0,55,0.00,,,0.00,0,Wunderground v.1.15,2015-05-03 10:03:00,
2015-05-03 06:08:00,57.2,41.2,29.18,WSW,246,4.0,-999.0,55,0.00,,,0.00,0,Wunderground v.1.15,2015-05-03 10:08:00,
2015-05-03 06:13:00,57.4,40.9,29.18,WSW,239,5.0,-999.0,54,0.00,,,0.00,0,Wunderground v.1.15,2015-05-03 10:13:00,
2015-05-03 06:18:00,57.4,41.4,29.18,WSW,251,5.0,-999.0,55,0.00,,,0.00,0,Wunderground v.1.15,2015-05-03 10:18:00,
2015-05-03 06:23:00,57.6,41.1,29.18,WSW,240,4.0,-999.0,54,0.00,,,0.00,0,Wunderground v.1.15,2015-05-03 10:23:00,
2015-05-03 06:28:00,57.6,41.1,29.18,West,263,4.0,-999.0,54,0.00,,,0.00,0,Wunderground v.1.15,2015-05-03 10:28:00,
2015-05-03 06:33:00,57.5,41.0,29.18,SSW,204,3.0,-999.0,54,0.00,,,0.00,0,Wunderground v.1.15,2015-05-03 10:33:00,
2015-05-03 06:38:00,57.6,41.1,29.18,SW,215,3.0,-999.0,54,0.00,,,0.00,0,Wunderground v.1.15,2015-05-03 10:38:00,
2015-05-03 06:43:00,57.6,41.1,29.19,SSW,213,4.0,-999.0,54,0.00,,,0.00,0,Wunderground v.1.15,2015-05-03 10:43:00,
2015-05-03 06:49:00,57.5,41.0,29.19,West,266,3.0,-999.0,54,0.00,,,0.00,0,Wunderground v.1.15,2015-05-03 10:49:00,